SCP
0 0 0 0 -0 0 0 0 0 0 0 -0 0 0 -0 -0 -0 -0 -0 0 -0 0 0 0 0 0 0 0 0 0 0 0 0 -0 0 0 0 0 0 0 0 0 0 0
0 0 0 0 0 0 0 0 0 0 0 -0 0 -0 -0 -0 -0 -0 0 0 0 0 0 0 0 0 0 0 0 0 0 0 0 -0 0 0 0 0 0 0 0 0 0 0
0 0 0 0 0 0 0 0 0 0 0 -0 0 -0 -0 -0 -0 -0 0 0 0 0 0 0 0 0 0 0 0 0 0 0 0 0 -0 0 0 0 0 0 0 0 0 0
0 0 0 0 0 0 0 0 0 0 -0 -0 -0 -0 -0 -0 -0 0 0 0 0 0 0 0 0 0 0 0 0 0 0 0 0 -0 -0 0 0 0 0 0 0 0 0 0
0 0 0 0 0 0 0 0 0 0 -0 -0 -0 -0 -0 0 0 0 0 0 0 0 0 0 0 0 0 0 0 0 0 0 0 -0 -0 0 0 0 0 0 0 0 0 0
0 0 0 0 0 0 0 0 0 0 -0 -0 -0 -0 0 -0 0 0 0 0 0 0 0 0 0 0 0 0 0 0 0 0 0 -0 -0 -0 0 -0 -0 0 0 0 0 0
0 0 0 0 0 0 0 0 -0 -0 -0 -0 -0 -0 0 -0 0 -0 -0 0 -0 -0 -0 0 0 0 0 0 0 0 0 0 0 -0 -0 -0 -0 0 0 0 0 0 0 0
0 0 0 0 0 0 0 0 0 -0 -0 -0 -0 -0 -0 -0 0 -0 -0 0 -0 -0 -0 -0 -0 0 0 0 0 0 0 0 0 0 0 -0 -0 0 0 0 0 0 0 0
0 0 0 0 0 0 0 0 0 -0 0 -0 -0 -0 -0 -0 -0 0 -0 -0 -0 -0 -0 -0 -0 -0 -0 0 0 0 0 0 0 0 0 0 -0 -0 0 0 0 0 0 0
0 0 0 0 0 0 0 0 0 0 -0 -0 -0 -0 -0 -0 -0 0 -0 -0 -0 -0 -0 -0 -0 -0 -0 0 0 0 0 0 0 0 0 0 0 0 0 0 0 0 0 0
0 0 0 0 0 0 0 0 -0 -0 -0 -0 -0 -0 0 0 -0 -0 0 -0 -0 -0 -0 -0 -0 -0 -0 0 0 0 0 0 0 0 0 0 0 0 0 0 0 0 0 0
0 0 0 0 0 0 0 0 0 -0 -0 -0 -0 -0 -0 -0 -0 -0 0 0 -0 -0 -0 -0 -0 -0 0 0 -0 -0 -0 0 0 0 0 0 0 0 0 0 -0 0 0 0
0 0 0 0 0 0 0 0 0 0 0 -0 -0 -0 -0 -0 -0 -0 0 0 0 0 -0 0 -0 -0 -0 -0 0 -0 -0 -0 0 0 0 0 0 0 0 0 0 0 0 0
0 0 0 0 0 0 0 0 0 0 -0 0 -0 -0 -0 0 0 0 0 0 0 0 0 0 0 -0 -0 -0 0 0 0 0 -0 -0 0 0 0 0 0 0 0 0 0 0
0 0 0 0 0 0 0 0 0 0 0 0 0 0 0 0 0 0 0 0 0 0 0 0 0 0 0 0 -0 -0 0 -0 0 -0 -0 -0 0 -0 -0 0 0 0 0 0
0 0 0 0 0 0 0 0 0 0 0 0 0 0 0 0 0 0 0 0 0 0 0 0 0 0 0 0 0 -0 -0 -0 -0 0 0 -0 -0 -0 0 0 0 0 0 0
0 0 0 0 0 0 0 0 0 0 0 0 0 0 0 0 0 0 0 0 0 0 0 0 0 0 0 0 0 0 0 0 0 -0 -0 0 0 -0 0 0 0 0 0 0
0 0 0 0 0 0 0 0 0 0 0 0 0 0 0 0 0 0 0 0 0 0 0 0 0 0 0 0 0 0 0 0 0 0 0 0 0 -0 -0 -0 -0 0 0 0
0 0 0 0 0 0 0 0 0 0 0 0 0 0 0 0 0 0 0 0 0 0 0 0 0 0 0 0 0 0 0 0 0 0 0 0 0 0 0 0 0 0 0 0
0 0 0 0 0 0 0 0 0 0 0 0 0 0 0 0 0 0 0 0 0 0 0 0 0 0 0 0 0 0 0 0 0 0 0 0 0 0 0 0 0 0 0 0
0 0 0 0 0 0 0 0 0 0 0 0 0 0 0 0 0 0 0 0 0 0 0 0 0 0 0 0 0 0 0 0 0 0 0 0 0 0 0 0 0 0 0 0
0 0 0 0 0 0 0 0 0 0 0 0 0 0 0 0 0 0 0 0 0 0 0 0 0 0 0 0 0 0 0 0 0 0 0 0 0 0 0 0 0 0 0 0
0 0 0 0 0 0 0 0 0 0 0 0 0 0 0 0 0 0 0 0 0 0 0 0 0 0 0 0 0 0 0 0 0 0 0 0 0 0 0 0 0 0 0 0
0 0 0 0 0 0 0 0 0 0 0 0 0 0 0 0 0 0 0 0 0 0 0 0 0 0 0 0 0 0 0 0 0 0 0 0 0 0 0 0 0 0 0 0
0 0 0 0 0 0 0 0 0 0 0 0 0 0 0 0 0 0 0 0 0 0 0 0 0 0 0 0 0 0 0 0 0 0 0 0 0 0 0 0 0 0 0 0
0 0 0 0 0 0 0 0 0 0 0 0 0 0 0 0 0 0 0 0 0 0 0 0 0 0 0 0 0 0 0 0 0 0 0 0 0 0 0 0 0 0 0 0
0 0 0 0 0 0 0 0 0 0 0 0 0 0 0 0 0 0 0 0 0 0 0 0 0 0 0 0 0 0 0 0 0 0 0 0 0 0 0 0 0 0 0 0
Wind_Speed_500mb
17 34 8 17 33 23 14 17 9 18 13 32 26 30 36 50 54 60 67 75 80 87 94 98 101 102 101 98 86 78 75 70 68 66 64 66 72 76 78 77 81 81 84 93
16 6 8 11 18 18 22 12 13 20 24 17 31 44 37 40 51 60 65 70 78 86 93 98 101 103 103 99 89 81 78 84 83 74 58 55 64 70 75 75 80 78 78 81
12 6 8 7 12 9 8 7 8 6 14 11 26 28 37 46 46 58 58 65 74 83 90 95 99 101 103 103 90 81 84 90 90 72 39 37 44 55 65 70 73 81 80 85
9 11 7 12 5 9 13 14 12 11 17 16 29 51 57 18 51 63 56 62 70 77 86 92 97 100 99 101 91 84 90 98 100 75 31 5 26 36 47 59 67 72 74 90
2 5 12 11 7 4 7 13 12 9 15 23 46 35 26 26 69 64 51 54 62 69 78 87 92 95 98 102 96 90 94 100 103 90 56 2 15 26 36 44 53 67 69 81
3 6 10 14 11 11 7 8 10 10 11 10 31 17 10 67 65 56 44 47 58 66 73 81 88 93 98 100 99 98 93 95 98 94 77 50 23 26 31 37 42 51 59 80
12 13 14 13 11 19 8 11 16 11 28 28 6 16 58 58 58 50 44 49 52 59 67 77 84 89 97 97 98 99 93 97 98 101 97 76 60 50 44 43 46 49 59 69
3 1 14 15 11 7 14 42 30 35 35 31 42 54 54 53 54 51 46 46 48 56 61 70 79 86 92 95 92 96 95 96 103 107 108 99 87 73 64 55 44 36 34 40
15 12 15 18 37 43 33 33 28 38 32 35 48 56 57 53 47 48 44 44 43 49 56 62 72 80 86 88 90 91 94 97 99 104 112 109 105 98 88 72 64 58 53 53
6 14 26 48 53 47 28 21 38 32 34 41 47 49 53 49 45 42 41 41 41 43 48 56 63 70 75 81 85 89 92 96 98 98 102 107 109 103 103 89 74 69 68 70
16 30 34 40 18 12 17 30 32 33 41 41 40 45 44 49 46 40 36 35 35 39 41 47 54 61 68 74 80 86 88 91 94 95 91 94 100 104 105 108 92 86 91 91
15 36 28 30 18 21 34 31 32 43 45 39 38 41 47 49 44 40 31 29 27 29 34 36 44 50 57 66 73 78 83 85 86 86 88 89 87 87 90 99 104 99 96 93
41 55 45 38 30 36 28 30 39 40 41 45 39 41 42 47 41 36 29 21 22 22 26 31 33 41 46 55 62 68 72 74 75 78 79 83 88 90 89 83 85 94 90 85
46 44 34 36 17 19 32 39 40 36 35 36 40 39 38 39 37 31 27 22 19 14 18 22 27 32 38 43 49 54 59 65 68 68 69 71 75 77 84 90 88 86 80 82
32 32 34 28 28 30 30 34 33 31 30 30 29 32 33 37 33 27 23 19 16 14 13 15 20 25 30 35 40 45 49 54 57 58 60 63 65 70 74 78 84 84 77 74
18 18 20 22 21 25 24 24 27 28 28 29 30 29 30 31 32 25 19 12 9 12 12 10 12 19 22 28 32 35 40 43 45 48 51 55 60 63 64 68 72 76 80 74
14 13 15 20 21 19 18 20 21 24 26 27 28 27 29 29 24 17 12 10 7 8 10 11 11 11 17 20 25 28 31 34 38 38 43 47 50 54 56 58 60 64 68 64
15 15 17 19 18 15 9 10 13 16 20 24 25 26 27 27 26 19 11 7 7 8 8 8 11 11 13 16 17 22 23 25 26 30 32 32 37 39 41 43 46 48 50 50
12 12 13 12 11 8 5 4 7 11 16 19 22 24 28 26 23 19 13 7 2 5 5 4 7 9 12 14 16 16 19 19 18 21 23 26 25 26 28 31 33 35 36 36
12 11 9 7 5 3 3 5 7 11 14 16 18 19 19 20 20 19 16 12 8 2 2 1 5 7 7 11 13 14 15 17 17 16 15 15 15 17 19 19 21 22 23 25
12 10 9 7 6 5 4 5 9 12 16 18 19 20 20 20 19 17 14 9 6 3 5 7 5 5 7 7 9 12 14 16 16 13 13 14 12 10 8 8 9 10 12 13
11 10 9 9 8 9 10 13 15 17 19 20 22 22 21 20 18 16 15 13 12 11 9 7 7 7 7 8 9 9 11 12 15 18 16 11 10 11 10 10 7 2 1 4
9 9 10 9 8 10 13 16 19 20 21 22 21 20 19 17 17 16 14 15 14 13 12 10 10 9 8 7 6 6 7 8 8 10 13 16 15 13 12 12 11 12 11 9
6 7 9 9 11 13 16 19 23 24 24 22 22 21 19 18 17 15 15 13 12 11 10 10 8 7 5 5 3 3 4 5 5 6 8 10 12 14 15 14 15 16 16 14
9 10 11 13 16 19 20 21 21 21 21 21 21 20 18 15 12 9 9 10 11 11 11 10 9 9 8 7 7 7 7 7 8 9 9 9 10 11 13 14 16 17 17 19
12 12 15 17 18 21 22 21 19 20 19 18 17 14 12 11 11 12 13 13 13 14 15 15 15 14 13 11 9 8 8 7 6 6 6 7 8 10 11 13 15 17 19 21
12 13 16 19 22 22 21 19 17 16 16 12 10 11 13 16 17 17 18 19 20 20 20 20 20 20 20 20 20 20 19 18 17 16 14 11 9 8 10 12 14 16 18 21
Wind_Direction_500mb
249 257 188 258 268 271 188 220 230 278 281 291 292 309 311 312 326 335 340 344 348 345 346 346 345 345 343 343 342 339 331 324 319 311 294 272 254 244 239 233 226 223 226 222
287 346 168 253 263 249 245 254 244 264 276 252 284 308 319 323 333 336 336 341 345 345 347 348 348 347 348 349 350 347 344 340 334 326 307 271 247 235 227 226 222 217 217 219
271 314 336 339 236 224 262 226 194 252 248 312 313 320 320 320 328 335 332 337 343 346 346 349 351 351 352 357 358 358 0 355 353 351 325 261 230 222 220 218 213 214 211 211
265 350 2 244 243 186 213 255 212 269 277 273 280 306 313 305 331 336 334 338 344 346 347 352 358 358 1 5 7 9 13 8 11 16 12 342 200 206 210 208 207 204 211 209
220 199 287 318 275 207 160 280 197 255 294 294 323 317 307 330 337 333 330 335 342 348 349 354 1 3 8 10 12 19 22 17 19 24 38 169 169 180 187 193 200 208 210 208
75 244 234 228 259 184 112 290 219 208 265 285 328 336 286 329 332 331 332 336 346 351 352 358 5 9 13 14 15 23 25 24 33 32 39 72 150 181 183 189 195 207 210 203
240 258 273 233 247 138 85 248 284 264 311 300 267 277 309 330 334 332 333 336 348 353 358 0 5 13 17 18 20 25 34 41 47 44 39 51 86 128 164 178 183 178 192 203
109 121 276 199 136 176 231 298 296 310 315 310 313 317 323 332 337 334 335 335 346 353 1 4 7 14 19 20 24 30 34 46 49 49 44 44 61 82 109 134 158 170 196 201
186 218 228 222 265 284 291 273 297 303 309 314 314 315 315 321 330 335 333 331 339 350 358 7 11 13 19 22 24 31 36 43 49 56 54 47 49 53 67 89 102 111 121 145
45 250 254 277 285 277 274 266 303 299 304 316 316 318 315 316 319 329 331 329 331 345 357 6 13 15 18 23 26 32 36 40 48 50 57 58 50 50 50 58 69 78 83 97
252 276 278 279 302 239 253 299 302 302 312 317 315 317 318 317 321 320 323 325 325 334 353 4 11 15 18 23 26 33 37 41 43 50 55 59 61 57 56 57 59 64 68 80
244 259 245 266 238 275 300 301 303 311 314 315 314 312 315 314 315 319 312 313 316 323 339 0 7 15 18 22 26 30 38 40 44 47 50 57 63 64 70 73 67 66 76 85
244 262 262 266 273 282 283 299 305 307 309 310 311 311 313 313 315 313 314 295 303 312 328 346 7 11 19 24 26 28 34 41 43 48 53 56 57 59 64 64 67 75 74 82
267 260 259 264 241 260 287 295 300 307 305 304 307 310 311 315 315 306 306 283 274 287 310 332 351 8 14 25 27 32 31 36 40 44 51 58 63 67 69 70 67 66 72 78
260 250 249 260 279 286 290 298 304 312 314 314 313 312 317 320 322 314 301 284 256 249 281 316 337 356 7 16 26 27 34 35 36 39 43 52 57 65 70 73 76 77 78 80
228 242 260 274 283 293 301 303 310 323 330 330 330 330 330 328 329 327 308 284 234 240 260 297 324 339 360 8 20 23 25 33 37 36 38 41 47 55 59 61 67 71 69 67
246 259 265 276 285 300 313 319 326 331 339 341 340 337 339 341 346 343 327 282 207 211 244 282 310 326 340 359 3 19 24 22 27 32 42 40 43 44 44 50 59 66 73 70
260 265 275 280 290 305 319 324 342 349 355 1 359 356 355 354 355 357 353 318 249 195 215 265 292 311 324 337 353 357 11 21 24 28 34 39 44 47 51 54 57 61 65 70
263 270 273 278 288 300 337 9 5 7 9 9 14 14 12 7 6 10 10 2 307 197 190 226 271 292 309 320 332 342 347 359 16 21 23 32 35 41 44 49 54 59 60 61
274 271 262 265 268 276 322 356 4 355 350 355 354 355 352 360 9 16 23 26 29 38 193 261 293 292 304 308 312 320 327 336 345 353 3 17 25 27 32 42 48 49 61 71
276 265 253 252 254 255 276 314 328 329 330 336 340 342 341 342 345 343 346 352 347 325 260 254 256 271 286 291 294 300 305 308 314 320 325 331 342 358 12 31 39 38 41 48
276 258 252 247 248 266 286 302 315 322 322 325 327 330 332 331 329 330 323 317 316 306 301 291 279 278 277 277 272 262 267 276 284 294 298 294 294 301 305 305 308 312 356 20
263 245 245 249 260 273 286 298 306 310 313 314 314 312 315 314 313 314 312 309 309 307 305 300 294 289 282 270 248 249 256 252 247 255 274 285 283 269 254 247 243 244 249 249
260 254 265 276 278 282 288 301 303 306 307 307 306 305 307 307 306 304 307 310 315 321 320 315 315 311 300 288 268 226 195 199 221 228 222 234 254 267 269 263 252 243 240 235
259 266 275 283 292 299 300 302 301 301 301 301 301 302 306 308 308 314 313 314 314 312 310 305 297 289 280 271 260 251 239 226 211 205 210 219 221 230 240 250 256 255 251 242
264 274 284 290 298 297 296 299 298 298 297 296 299 298 298 300 301 300 298 296 295 295 295 294 293 290 287 281 271 261 254 252 242 224 218 218 222 229 232 237 242 243 244 244
274 281 291 298 297 297 299 298 299 300 304 300 293 291 290 294 296 299 299 298 295 293 291 288 287 284 280 276 272 268 265 261 257 254 250 245 238 234 231 234 239 242 241 241
Wind_Speed_850mb
17 34 8 17 33 23 14 17 9 18 13 32 26 30 36 50 54 60 67 75 80 87 94 98 101 102 101 98 86 78 75 70 68 66 64 66 72 76 78 77 81 81 84 93
16 6 8 11 18 18 22 12 13 20 24 17 31 44 37 40 51 60 65 70 78 86 93 98 101 103 103 99 89 81 78 84 83 74 58 55 64 70 75 75 80 78 78 81
12 6 8 7 12 9 8 7 8 6 14 11 26 28 37 46 46 58 58 65 74 83 90 95 99 101 103 103 90 81 84 90 90 72 39 37 44 55 65 70 73 81 80 85
9 11 7 12 5 9 13 14 12 11 17 16 29 51 57 18 51 63 56 62 70 77 86 92 97 100 99 101 91 84 90 98 100 75 31 5 26 36 47 59 67 72 74 90
2 5 12 11 7 4 7 13 12 9 15 23 46 35 26 26 69 64 51 54 62 69 78 87 92 95 98 102 96 90 94 100 103 90 56 2 15 26 36 44 53 67 69 81
3 6 10 14 11 11 7 8 10 10 11 10 31 17 10 67 65 56 44 47 58 66 73 81 88 93 98 100 99 98 93 95 98 94 77 50 23 26 31 37 42 51 59 80
12 13 14 13 11 19 8 11 16 11 28 28 6 16 58 58 58 50 44 49 52 59 67 77 84 89 97 97 98 99 93 97 98 101 97 76 60 50 44 43 46 49 59 69
3 1 14 15 11 7 14 42 30 35 35 31 42 54 54 53 54 51 46 46 48 56 61 70 79 86 92 95 92 96 95 96 103 107 108 99 87 73 64 55 44 36 34 40
15 12 15 18 37 43 33 33 28 38 32 35 48 56 57 53 47 48 44 44 43 49 56 62 72 80 86 88 90 91 94 97 99 104 112 109 105 98 88 72 64 58 53 53
6 14 26 48 53 47 28 21 38 32 34 41 47 49 53 49 45 42 41 41 41 43 48 56 63 70 75 81 85 89 92 96 98 98 102 107 109 103 103 89 74 69 68 70
16 30 34 40 18 12 17 30 32 33 41 41 40 45 44 49 46 40 36 35 35 39 41 47 54 61 68 74 80 86 88 91 94 95 91 94 100 104 105 108 92 86 91 91
15 36 28 30 18 21 34 31 32 43 45 39 38 41 47 49 44 40 31 29 27 29 34 36 44 50 57 66 73 78 83 85 86 86 88 89 87 87 90 99 104 99 96 93
41 55 45 38 30 36 28 30 39 40 41 45 39 41 42 47 41 36 29 21 22 22 26 31 33 41 46 55 62 68 72 74 75 78 79 83 88 90 89 83 85 94 90 85
46 44 34 36 17 19 32 39 40 36 35 36 40 39 38 39 37 31 27 22 19 14 18 22 27 32 38 43 49 54 59 65 68 68 69 71 75 77 84 90 88 86 80 82
32 32 34 28 28 30 30 34 33 31 30 30 29 32 33 37 33 27 23 19 16 14 13 15 20 25 30 35 40 45 49 54 57 58 60 63 65 70 74 78 84 84 77 74
18 18 20 22 21 25 24 24 27 28 28 29 30 29 30 31 32 25 19 12 9 12 12 10 12 19 22 28 32 35 40 43 45 48 51 55 60 63 64 68 72 76 80 74
14 13 15 20 21 19 18 20 21 24 26 27 28 27 29 29 24 17 12 10 7 8 10 11 11 11 17 20 25 28 31 34 38 38 43 47 50 54 56 58 60 64 68 64
15 15 17 19 18 15 9 10 13 16 20 24 25 26 27 27 26 19 11 7 7 8 8 8 11 11 13 16 17 22 23 25 26 30 32 32 37 39 41 43 46 48 50 50
12 12 13 12 11 8 5 4 7 11 16 19 22 24 28 26 23 19 13 7 2 5 5 4 7 9 12 14 16 16 19 19 18 21 23 26 25 26 28 31 33 35 36 36
12 11 9 7 5 3 3 5 7 11 14 16 18 19 19 20 20 19 16 12 8 2 2 1 5 7 7 11 13 14 15 17 17 16 15 15 15 17 19 19 21 22 23 25
12 10 9 7 6 5 4 5 9 12 16 18 19 20 20 20 19 17 14 9 6 3 5 7 5 5 7 7 9 12 14 16 16 13 13 14 12 10 8 8 9 10 12 13
11 10 9 9 8 9 10 13 15 17 19 20 22 22 21 20 18 16 15 13 12 11 9 7 7 7 7 8 9 9 11 12 15 18 16 11 10 11 10 10 7 2 1 4
9 9 10 9 8 10 13 16 19 20 21 22 21 20 19 17 17 16 14 15 14 13 12 10 10 9 8 7 6 6 7 8 8 10 13 16 15 13 12 12 11 12 11 9
6 7 9 9 11 13 16 19 23 24 24 22 22 21 19 18 17 15 15 13 12 11 10 10 8 7 5 5 3 3 4 5 5 6 8 10 12 14 15 14 15 16 16 14
9 10 11 13 16 19 20 21 21 21 21 21 21 20 18 15 12 9 9 10 11 11 11 10 9 9 8 7 7 7 7 7 8 9 9 9 10 11 13 14 16 17 17 19
12 12 15 17 18 21 22 21 19 20 19 18 17 14 12 11 11 12 13 13 13 14 15 15 15 14 13 11 9 8 8 7 6 6 6 7 8 10 11 13 15 17 19 21
12 13 16 19 22 22 21 19 17 16 16 12 10 11 13 16 17 17 18 19 20 20 20 20 20 20 20 20 20 20 19 18 17 16 14 11 9 8 10 12 14 16 18 21
Wind_Direction_850mb
249 257 188 258 268 271 188 220 230 278 281 291 292 309 311 312 326 335 340 344 348 345 346 346 345 345 343 343 342 339 331 324 319 311 294 272 254 244 239 233 226 223 226 222
287 346 168 253 263 249 245 254 244 264 276 252 284 308 319 323 333 336 336 341 345 345 347 348 348 347 348 349 350 347 344 340 334 326 307 271 247 235 227 226 222 217 217 219
271 314 336 339 236 224 262 226 194 252 248 312 313 320 320 320 328 335 332 337 343 346 346 349 351 351 352 357 358 358 0 355 353 351 325 261 230 222 220 218 213 214 211 211
265 350 2 244 243 186 213 255 212 269 277 273 280 306 313 305 331 336 334 338 344 346 347 352 358 358 1 5 7 9 13 8 11 16 12 342 200 206 210 208 207 204 211 209
220 199 287 318 275 207 160 280 197 255 294 294 323 317 307 330 337 333 330 335 342 348 349 354 1 3 8 10 12 19 22 17 19 24 38 169 169 180 187 193 200 208 210 208
75 244 234 228 259 184 112 290 219 208 265 285 328 336 286 329 332 331 332 336 346 351 352 358 5 9 13 14 15 23 25 24 33 32 39 72 150 181 183 189 195 207 210 203
240 258 273 233 247 138 85 248 284 264 311 300 267 277 309 330 334 332 333 336 348 353 358 0 5 13 17 18 20 25 34 41 47 44 39 51 86 128 164 178 183 178 192 203
109 121 276 199 136 176 231 298 296 310 315 310 313 317 323 332 337 334 335 335 346 353 1 4 7 14 19 20 24 30 34 46 49 49 44 44 61 82 109 134 158 170 196 201
186 218 228 222 265 284 291 273 297 303 309 314 314 315 315 321 330 335 333 331 339 350 358 7 11 13 19 22 24 31 36 43 49 56 54 47 49 53 67 89 102 111 121 145
45 250 254 277 285 277 274 266 303 299 304 316 316 318 315 316 319 329 331 329 331 345 357 6 13 15 18 23 26 32 36 40 48 50 57 58 50 50 50 58 69 78 83 97
252 276 278 279 302 239 253 299 302 302 312 317 315 317 318 317 321 320 323 325 325 334 353 4 11 15 18 23 26 33 37 41 43 50 55 59 61 57 56 57 59 64 68 80
244 259 245 266 238 275 300 301 303 311 314 315 314 312 315 314 315 319 312 313 316 323 339 0 7 15 18 22 26 30 38 40 44 47 50 57 63 64 70 73 67 66 76 85
244 262 262 266 273 282 283 299 305 307 309 310 311 311 313 313 315 313 314 295 303 312 328 346 7 11 19 24 26 28 34 41 43 48 53 56 57 59 64 64 67 75 74 82
267 260 259 264 241 260 287 295 300 307 305 304 307 310 311 315 315 306 306 283 274 287 310 332 351 8 14 25 27 32 31 36 40 44 51 58 63 67 69 70 67 66 72 78
260 250 249 260 279 286 290 298 304 312 314 314 313 312 317 320 322 314 301 284 256 249 281 316 337 356 7 16 26 27 34 35 36 39 43 52 57 65 70 73 76 77 78 80
228 242 260 274 283 293 301 303 310 323 330 330 330 330 330 328 329 327 308 284 234 240 260 297 324 339 360 8 20 23 25 33 37 36 38 41 47 55 59 61 67 71 69 67
246 259 265 276 285 300 313 319 326 331 339 341 340 337 339 341 346 343 327 282 207 211 244 282 310 326 340 359 3 19 24 22 27 32 42 40 43 44 44 50 59 66 73 70
260 265 275 280 290 305 319 324 342 349 355 1 359 356 355 354 355 357 353 318 249 195 215 265 292 311 324 337 353 357 11 21 24 28 34 39 44 47 51 54 57 61 65 70
263 270 273 278 288 300 337 9 5 7 9 9 14 14 12 7 6 10 10 2 307 197 190 226 271 292 309 320 332 342 347 359 16 21 23 32 35 41 44 49 54 59 60 61
274 271 262 265 268 276 322 356 4 355 350 355 354 355 352 360 9 16 23 26 29 38 193 261 293 292 304 308 312 320 327 336 345 353 3 17 25 27 32 42 48 49 61 71
276 265 253 252 254 255 276 314 328 329 330 336 340 342 341 342 345 343 346 352 347 325 260 254 256 271 286 291 294 300 305 308 314 320 325 331 342 358 12 31 39 38 41 48
276 258 252 247 248 266 286 302 315 322 322 325 327 330 332 331 329 330 323 317 316 306 301 291 279 278 277 277 272 262 267 276 284 294 298 294 294 301 305 305 308 312 356 20
263 245 245 249 260 273 286 298 306 310 313 314 314 312 315 314 313 314 312 309 309 307 305 300 294 289 282 270 248 249 256 252 247 255 274 285 283 269 254 247 243 244 249 249
260 254 265 276 278 282 288 301 303 306 307 307 306 305 307 307 306 304 307 310 315 321 320 315 315 311 300 288 268 226 195 199 221 228 222 234 254 267 269 263 252 243 240 235
259 266 275 283 292 299 300 302 301 301 301 301 301 302 306 308 308 314 313 314 314 312 310 305 297 289 280 271 260 251 239 226 211 205 210 219 221 230 240 250 256 255 251 242
264 274 284 290 298 297 296 299 298 298 297 296 299 298 298 300 301 300 298 296 295 295 295 294 293 290 287 281 271 261 254 252 242 224 218 218 222 229 232 237 242 243 244 244
274 281 291 298 297 297 299 298 299 300 304 300 293 291 290 294 296 299 299 298 295 293 291 288 287 284 280 276 272 268 265 261 257 254 250 245 238 234 231 234 239 242 241 241